This is the latest recevied weather packets stored in our database for station/object W8KHW. If no packets are shown the sender has not sent any weather packets the latest 10 day(s).
| Time | Temp. | Humidity | Pressure | Rain* | Wind** | Luminosity | Snow |
|---|---|---|---|---|---|---|---|
| 1777765401 | 7.78° C | 53% | 1017.9 hPa | 0 mm | - | - | - |
| 1777764901 | 7.78° C | 55% | 1018 hPa | 0 mm | - | - | - |
| 1777764400 | 7.78° C | 53% | 1017.8 hPa | 0 mm | - | - | - |
| 1777763900 | 7.78° C | 54% | 1017.8 hPa | 0 mm | - | - | - |
| 1777763400 | 7.78° C | 51% | 1017.7 hPa | 0 mm | - | - | - |
| 1777762900 | 8.33° C | 57% | 1017.8 hPa | 0 mm | - | - | - |
| 1777762400 | 7.78° C | 54% | 1017.7 hPa | 0 mm | - | - | - |
| 1777761899 | 8.33° C | 52% | 1017.8 hPa | 0 mm | - | - | - |
| 1777761399 | 8.33° C | 50% | 1017.4 hPa | 0 mm | - | - | - |
| 1777760899 | 8.33° C | 52% | 1017.7 hPa | 0 mm | - | - | - |
| 1777760399 | 8.89° C | 52% | 1017.8 hPa | 0 mm | - | - | - |
| 1777759898 | 8.33° C | 51% | 1017.7 hPa | 0 mm | - | - | - |
| 1777759398 | 8.89° C | 50% | 1017.6 hPa | 0 mm | - | - | - |
| 1777758898 | 8.33° C | 48% | 1017.5 hPa | 0 mm | - | - | - |
| 1777758398 | 8.89° C | 49% | 1017.6 hPa | 0 mm | - | - | - |
| 1777757898 | 8.89° C | 49% | 1017.7 hPa | 0 mm | - | - | - |
| 1777757397 | 8.89° C | 46% | 1017.5 hPa | 0 mm | - | - | - |
| 1777756897 | 9.44° C | 49% | 1017.2 hPa | 0 mm | - | - | - |
| 1777756397 | 9.44° C | 51% | 1017.3 hPa | 0 mm | - | - | - |
| 1777755897 | 8.89° C | 48% | 1017.5 hPa | 0 mm | - | - | - |
| 1777755396 | 8.89° C | 48% | 1017.5 hPa | 0 mm | - | - | - |
| 1777754896 | 9.44° C | 49% | 1017.4 hPa | 0 mm | - | - | - |
| 1777754396 | 9.44° C | 50% | 1017.4 hPa | 0 mm | - | - | - |
| 1777753896 | 9.44° C | 51% | 1017.4 hPa | 0 mm | - | - | - |
| 1777753395 | 9.44° C | 48% | 1017.6 hPa | 0 mm | - | - | - |
* Rain latest hour (hover to see other rain measurements)
** Current wind speed in m/s (hover to see current wind gust speed)